Weather reports worldwide

Advertisment
La Coruna/Alvedro, Spain (8002): temperature & dewpoint: 18.06.2018 15:00:00 - 24.06.2018 15:00:00 (CEST)La Coruna/Alvedro, Spain (8002): wind speed: 18.06.2018 15:00:00 - 24.06.2018 15:00:00 (CEST)La Coruna/Alvedro, Spain (8002): wind direction: 18.06.2018 15:00:00 - 24.06.2018 15:00:00 (CEST)La Coruna/Alvedro, Spain (8002): reduced air pressure: 18.06.2018 15:00:00 - 24.06.2018 15:00:00 (CEST)La Coruna/Alvedro, Spain (8002): visibility: 18.06.2018 15:00:00 - 24.06.2018 15:00:00 (CEST)
Date & Time tt [°C] td [°C] ff [km/h] ff [kn] dd ppp [hPa] vv [km]
24.06.2018 15:00:00 26,0 18,2 13 7 NNE 1014,2 10
24.06.2018 14:00:00 27,4 18,6 15 8 NNE 1014,2 29
24.06.2018 13:00:00 26,6 18,9 11 6 NNE 1014,4 15
24.06.2018 12:00:00 26,3 19,9 9 5 NNE 1014,3 10
24.06.2018 11:00:00 26,6 19,8 2 1 - 1014,2 10
24.06.2018 10:00:00 24,3 18,7 5 3 SE 1014,3 10
24.06.2018 09:00:00 20,8 17,4 5 3 S 1014,2 8
24.06.2018 08:00:00 18,5 16,7 8 4 S 1014,2 7
24.06.2018 07:00:00 18,0 16,2 11 6 S 1013,9 8
24.06.2018 06:00:00 17,8 15,8 5 3 SSW 1013,9 7
24.06.2018 05:00:00 18,7 15,6 4 2 - 1014,0 8
24.06.2018 04:00:00 18,7 15,6 0 0 N 1014,1 6
24.06.2018 03:00:00 19,6 15,7 5 3 ESE 1014,5 8
24.06.2018 02:00:00 20,8 15,8 4 2 - 1014,8 7
24.06.2018 01:00:00 22,6 16,2 4 2 - 1014,9 7
24.06.2018 00:00:00 23,2 16,3 8 4 SSE 1015,2 8
23.06.2018 23:00:00 23,1 17,1 4 2 - 1014,9 7
23.06.2018 22:00:00 25,1 17,5 5 3 N 1014,1 10
23.06.2018 21:00:00 27,4 18,3 8 4 N 1013,3 10
23.06.2018 20:00:00 28,7 18,7 11 6 N 1013,3 10
23.06.2018 19:00:00 29,8 19,1 13 7 NNW 1013,4 21
23.06.2018 18:00:00 30,4 19,5 11 6 N 1013,6 10
23.06.2018 17:00:00 30,6 19,5 11 6 N 1014,0 10
23.06.2018 16:00:00 30,1 18,3 9 5 N 1014,5 10
23.06.2018 15:00:00 28,7 17,9 9 5 N 1015,3 10
23.06.2018 14:00:00 27,8 18,5 9 5 NNE 1015,9 10
23.06.2018 13:00:00 26,0 18,2 8 4 NNE 1016,5 10
23.06.2018 12:00:00 25,8 18,3 8 4 E 1016,6 10
23.06.2018 11:00:00 24,2 17,5 9 5 SE 1016,8 10
23.06.2018 10:00:00 21,7 16,3 5 3 SSE 1017,2 10
23.06.2018 09:00:00 19,6 15,5 0 0 N 1017,3 10
23.06.2018 08:00:00 17,5 14,9 0 0 N 1017,2 10
23.06.2018 07:00:00 16,0 14,7 0 0 N 1017,1 10
23.06.2018 06:00:00 15,8 14,5 0 0 N 1017,5 10
23.06.2018 05:00:00 16,3 14,7 0 0 N 1017,7 10
23.06.2018 04:00:00 16,7 14,7 0 0 N 1017,8 10
23.06.2018 03:00:00 17,5 14,9 0 0 N 1018,1 10
23.06.2018 02:00:00 18,0 15,1 2 1 - 1018,4 10
23.06.2018 01:00:00 18,7 15,2 2 1 - 1018,6 10
23.06.2018 00:00:00 19,3 15,2 0 0 N 1018,5 10
22.06.2018 23:00:00 20,3 15,5 5 3 NNE 1018,3 10
22.06.2018 22:00:00 21,8 16,1 11 6 NE 1017,6 10
22.06.2018 21:00:00 23,5 16,9 13 7 ENE 1017,3 10
22.06.2018 20:00:00 25,2 18,0 15 8 ENE 1017,4 10
22.06.2018 19:00:00 26,3 17,9 21 11 E 1017,4 10
22.06.2018 18:00:00 27,1 18,7 21 11 ENE 1017,4 10
22.06.2018 17:00:00 26,9 18,3 15 8 N 1017,8 10
22.06.2018 16:00:00 26,9 18,3 13 7 N 1018,1 10
22.06.2018 15:00:00 26,2 18,1 15 8 N 1018,5 10
22.06.2018 14:00:00 25,0 17,9 11 6 N 1019,4 10
22.06.2018 13:00:00 23,6 17,5 15 8 N 1020,0 29
22.06.2018 12:00:00 22,6 16,8 9 5 N 1020,1 10
22.06.2018 11:00:00 21,4 16,5 9 5 N 1020,3 10
22.06.2018 10:00:00 20,6 16,6 9 5 NNE 1020,3 10
22.06.2018 09:00:00 20,0 17,0 4 2 - - 10
22.06.2018 08:00:00 18,0 16,0 2 1 - - 10
22.06.2018 07:00:00 17,0 15,0 5 3 SSW - 10
22.06.2018 06:00:00 18,0 16,0 4 2 - - 10
22.06.2018 05:00:00 18,0 16,0 8 4 N - 10
22.06.2018 04:00:00 18,0 16,0 9 5 NNE - 10
22.06.2018 03:00:00 18,0 16,0 5 3 N - 10
22.06.2018 02:00:00 18,0 16,0 5 3 NNE - 10
22.06.2018 01:00:00 18,0 16,0 8 4 NNE - 10
22.06.2018 00:00:00 18,0 16,0 9 5 N - 10
21.06.2018 23:00:00 18,0 16,0 11 6 NNE - 10
21.06.2018 22:00:00 19,0 16,0 13 7 NNE - 10
21.06.2018 21:00:00 21,0 17,0 15 8 NNE - 10
21.06.2018 20:00:00 21,0 17,0 13 7 N - 10
21.06.2018 19:00:00 22,0 17,0 16 9 NNW - 10
21.06.2018 18:00:00 22,0 17,0 24 13 N - 10
21.06.2018 17:00:00 23,0 18,0 22 12 N - 10
21.06.2018 16:00:00 23,0 18,0 21 11 N - 10
21.06.2018 15:00:00 24,0 19,0 15 8 N - 10
21.06.2018 14:00:00 23,0 18,0 11 6 N - 10
21.06.2018 13:00:00 22,0 18,0 15 8 N - 10
21.06.2018 12:00:00 21,0 17,0 13 7 N - 10
21.06.2018 11:00:00 21,0 17,0 11 6 N - 10
21.06.2018 10:00:00 20,0 17,0 11 6 N - 10
21.06.2018 09:00:00 18,9 16,5 2 1 - 1019,7 10
21.06.2018 08:00:00 17,5 16,4 5 3 NNW 1019,6 10
21.06.2018 07:00:00 16,9 16,1 5 3 N 1019,6 10
21.06.2018 06:00:00 17,1 16,3 5 3 N 1019,6 10
21.06.2018 05:00:00 16,7 15,9 5 3 NW 1019,5 9
21.06.2018 04:00:00 16,4 15,6 0 0 N 1019,7 8
21.06.2018 03:00:00 16,9 15,9 0 0 N 1019,9 8
21.06.2018 02:00:00 17,3 16,0 0 0 N 1020,4 8
21.06.2018 01:00:00 17,7 16,2 2 1 - 1020,3 10
21.06.2018 00:00:00 18,4 16,6 5 3 NW 1020,1 10
20.06.2018 23:00:00 18,7 16,5 5 3 NNW 1019,5 10
20.06.2018 22:00:00 20,0 17,0 8 4 N 1018,7 10
20.06.2018 21:00:00 20,5 17,2 8 4 N 1018,4 10
20.06.2018 20:00:00 21,8 17,9 5 3 NNE 1017,9 10
20.06.2018 19:00:00 21,5 17,8 11 6 WNW 1018,0 10
20.06.2018 18:00:00 21,4 17,5 13 7 WNW 1017,9 14
20.06.2018 17:00:00 22,8 17,7 13 7 N 1018,0 10
20.06.2018 16:00:00 23,9 17,8 16 9 NNW 1017,5 10
20.06.2018 15:00:00 24,8 17,9 13 7 NNW 1017,5 10
20.06.2018 14:00:00 23,7 17,5 11 6 NNE 1017,5 10
20.06.2018 13:00:00 23,5 17,5 9 5 NNE 1017,7 10
20.06.2018 12:00:00 22,8 16,7 5 3 - 1017,8 10
20.06.2018 11:00:00 21,1 16,1 4 2 NNW 1017,9 30
20.06.2018 10:00:00 20,6 16,0 4 2 - 1018,0 10
20.06.2018 09:00:00 18,4 15,1 0 0 N 1018,0 18
20.06.2018 08:00:00 16,6 14,4 0 0 N 1017,7 10
20.06.2018 07:00:00 15,6 14,3 4 2 S 1017,6 17
20.06.2018 06:00:00 16,0 14,0 2 1 - 1017,5 10
20.06.2018 05:00:00 16,7 14,3 2 1 SSE 1017,3 10
20.06.2018 04:00:00 16,6 14,2 0 0 N 1017,4 10
20.06.2018 03:00:00 17,1 14,7 0 0 N 1017,6 10
20.06.2018 02:00:00 17,8 14,7 4 2 - 1017,9 10
20.06.2018 01:00:00 18,0 15,3 2 1 - 1018,0 10
20.06.2018 00:00:00 19,2 15,5 0 0 N 1017,9 30
19.06.2018 23:00:00 20,4 15,8 5 3 N 1017,4 10
19.06.2018 22:00:00 22,2 15,8 8 4 N 1016,8 30
19.06.2018 21:00:00 24,8 16,5 8 4 N 1016,5 30
19.06.2018 20:00:00 25,2 16,7 9 5 N 1016,7 30
19.06.2018 19:00:00 25,9 16,9 13 7 N 1016,7 30
19.06.2018 18:00:00 26,6 16,9 13 7 N 1016,9 30
19.06.2018 17:00:00 26,4 16,9 13 7 N 1017,3 10
19.06.2018 16:00:00 25,5 16,8 13 7 N 1018,0 30
19.06.2018 15:00:00 24,8 16,4 15 8 N 1018,3 30
19.06.2018 14:00:00 24,0 17,1 15 8 N 1019,1 10
19.06.2018 13:00:00 22,9 16,0 13 7 N 1019,9 10
19.06.2018 12:00:00 21,7 16,0 13 7 N 1020,5 10
19.06.2018 11:00:00 20,5 15,4 11 6 N 1021,2 10
19.06.2018 10:00:00 19,4 15,1 8 4 NNE 1021,7 10
19.06.2018 09:00:00 17,9 14,4 4 2 - 1021,9 10
19.06.2018 08:00:00 16,5 14,0 0 0 N 1021,8 10
19.06.2018 07:00:00 15,2 13,9 4 2 NNW 1022,0 22
19.06.2018 06:00:00 15,9 14,1 5 3 N 1022,2 24
19.06.2018 05:00:00 16,5 14,5 4 2 N 1022,5 30
19.06.2018 04:00:00 16,8 14,4 8 4 N 1023,0 30
19.06.2018 03:00:00 17,2 14,7 9 5 N 1023,3 30
19.06.2018 02:00:00 17,1 14,6 9 5 N 1023,7 30
19.06.2018 01:00:00 17,3 14,4 11 6 N 1024,4 10
19.06.2018 00:00:00 17,6 14,3 9 5 N 1024,6 10
18.06.2018 23:00:00 18,2 14,5 11 6 N 1024,4 10
18.06.2018 22:00:00 19,7 14,9 9 5 N 1024,3 10
18.06.2018 21:00:00 21,4 15,7 13 7 N 1024,0 10
18.06.2018 20:00:00 21,8 16,1 11 6 N 1023,9 10
18.06.2018 19:00:00 22,1 16,1 15 8 NNW 1024,1 10
18.06.2018 18:00:00 21,7 16,4 16 9 N 1024,5 10
18.06.2018 17:00:00 20,9 16,5 22 12 N 1025,0 10
18.06.2018 16:00:00 20,3 16,6 24 13 N 1025,5 30
18.06.2018 15:00:00 20,5 16,5 22 12 N 1025,7 10

tt = temperature
td = dewpoint
ff = wind speed
dd = wind direction
ppp = reduced air pressure
vv = visibility

Next stations